Back to catalog

ONEWEB-0647

AliveCommunicationsPO
NORAD 56079·PAYLOAD·🇬🇧 United Kingdom

Launched Mar 26, 2023 from Satish Dhawan Space Centre

Loading…

Next Passes (next 24 hours)

TLE

FreshSource: CelesTrak SupGP

Epoch: Sep 14, 2026, 17:28 UTC

1 56079C 23043AK  26257.72826806  .00001773  00000+0  47142-2 0  2574
2 56079  87.8979 241.3708 0002224  86.7432 309.3479 13.15544556    17

Track ONEWEB-0647 in real time with AllMySat

Download on the App Store